Regional Weather Roundup
Issued by NWS

Home | Current Version | Previous Version | Graphics & Text | Print | Product List | Glossary On
Versions: 1 2 3 4 5 6 7 8 9 10 11 12 13 14 15 16 17 18 19 20 21 22 23 24 25 26 27 28 29 30 31 32 33 34 35 36 37 38 39 40 41 42 43 44 45 46 47 48 49 50
000
ASUS43 KTOP 210708
RWRKS

WEATHER ROUNDUP FOR KANSAS
NATIONAL WEATHER SERVICE GOODLAND KS
100 AM CST TUE FEB 21 2017

NOTE:  "FAIR" INDICATES FEW OR NO CLOUDS BELOW 12,000 FEET WITH NO
SIGNIFICANT WEATHER AND/OR OBSTRUCTIONS TO VISIBILITY.

KSZ001>006-013>018-027>032-041>047-210800-
NORTHWEST KANSAS

CITY           SKY/WX    TMP DP  RH WIND       PRES   REMARKS
GOODLAND       CLOUDY    45  14  28 SW12      30.01S
HAYS           CLEAR     31  27  85 NW3       30.01S
HILL CITY      CLOUDY    31  25  78 SW3       30.00S
RUSSELL        CLEAR     37  32  82 CALM      29.99S
$$

KSZ061>065-074>080-084>089-210800-
SOUTHWEST KANSAS

CITY           SKY/WX    TMP DP  RH WIND       PRES   REMARKS
DODGE CITY     CLOUDY    36  25  64 NW7       30.03R
ELKHART          N/A     40  12  32 SW5         N/A
GARDEN CITY    CLOUDY    32  18  56 NW8       30.03S
GREAT BEND     CLEAR     36  31  82 W6        30.01R
LIBERAL        CLOUDY    34  12  40 W9        30.06R
PRATT          CLEAR     34  30  86 NW7       30.01R
$$

KSZ066>073-081>083-090>101-210800-
SOUTHEAST KANSAS

CITY           SKY/WX    TMP DP  RH WIND       PRES   REMARKS
CHANUTE        FOG       48  47  96 CALM      29.93S VSB 1/2
COFFEYVILLE    FOG       49  48  97 E3        29.92S VSB 1/4
HUTCHINSON     CLEAR     48  38  68 N9        29.98R
MEDICINE LODGE   N/A     43  35  73 N3        29.99R
NEWTON         CLEAR     46  42  86 N10       29.97R
PARSONS        CLOUDY    46  45  96 CALM      29.93S
WICHITA INTL   CLEAR     50  43  77 N9        29.95S
WICHITA JABRA  CLEAR     49  44  83 N8        29.95S
WICHITA MCCONL CLEAR     51  43  75 NE10      29.95R
WINFIELD       CLEAR     51  46  83 N9        29.94S
$$

KSZ007>012-019>026-033>040-048>060-102>105-210800-
NORTHEAST KANSAS

CITY           SKY/WX    TMP DP  RH WIND       PRES   REMARKS
CONCORDIA      CLEAR     46  38  73 NW3       29.98S
EMPORIA        CLEAR     50  46  86 N10       29.93S
LAWRENCE       CLOUDY    55  48  77 N8        29.93R
MANHATTAN      CLEAR     42  40  92 CALM      29.96R
MARYSVILLE     CLEAR     41  37  87 NW5       29.97R
OLATHE IND     CLOUDY    52  50  93 CALM      29.93R
OLATHE EXE     MOCLDY    53  52  96 NW3       29.92R
SALINA         CLEAR     44  37  76 NW3       29.98R
TOPEKA BILLARD MOCLDY    51  45  79 W3        29.93S
TOPEKA FORBES  PTCLDY    49  45  86 N6        29.93S
$$




USA.gov is the U.S. government's official web portal to all federal, state and local government web resources and services.